| time (UTC) | temp F | wind direction | speed MPH | gust MPH | rain 1hr in | rain 24hr in | rain mn in | humidity % | barometer mb |
| 20260906202914 | 86 | 209 | 2.0 | 3.0 | 0.00 | 1.29 | 1.29 | 74 | 1011.8 |
| 20260906202408 | 86 | 217 | 4.0 | 4.0 | 0.00 | 1.29 | 1.29 | 74 | 1011.9 |
| 20260906201907 | 86 | 200 | 3.0 | 6.0 | 0.00 | 1.29 | 1.29 | 75 | 1012.0 |
| 20260906201401 | 85 | 286 | 4.0 | 6.0 | 0.00 | 1.29 | 1.29 | 77 | 1011.9 |
| 20260906200857 | 85 | 213 | 5.0 | 7.0 | 0.00 | 1.29 | 1.29 | 79 | 1011.8 |
| 20260906200353 | 84 | 209 | 3.0 | 7.0 | 0.00 | 1.29 | 1.29 | 82 | 1011.7 |
| 20260906195848 | 83 | 196 | 2.0 | 3.0 | 0.00 | 1.29 | 1.29 | 84 | 1011.5 |
| 20260906195345 | 83 | 203 | 5.0 | 7.0 | 0.00 | 1.29 | 1.29 | 84 | 1011.9 |
| 20260906194840 | 82 | 162 | 2.0 | 2.0 | 0.00 | 1.29 | 1.29 | 87 | 1011.9 |
| 20260906194336 | 81 | 268 | 4.0 | 6.0 | 0.00 | 1.29 | 1.29 | 88 | 1012.2 |
| 20260906193830 | 81 | 199 | 5.0 | 7.0 | 0.00 | 1.29 | 1.29 | 88 | 1012.3 |
| 20260906193325 | 81 | 278 | 2.0 | 4.0 | 0.00 | 1.29 | 1.29 | 90 | 1012.6 |
| 20260906192822 | 80 | 219 | 5.0 | 8.0 | 0.00 | 1.29 | 1.29 | 90 | 1012.5 |
| 20260906192321 | 80 | 270 | 3.0 | 7.0 | 0.00 | 1.29 | 1.29 | 91 | 1012.9 |
| 20260906191820 | 79 | 224 | 4.0 | 7.0 | 0.00 | 1.29 | 1.29 | 92 | 1013.0 |
| 20260906191315 | 79 | 234 | 5.0 | 7.0 | 0.00 | 1.29 | 1.29 | 92 | 1013.2 |
| 20260906190809 | 78 | 243 | 3.0 | 6.0 | 0.07 | 1.29 | 1.29 | 92 | 1013.2 |
| 20260906190309 | 78 | 227 | 2.0 | 4.0 | 0.12 | 1.29 | 1.29 | 93 | 1013.3 |
| 20260906185808 | 77 | 187 | 1.0 | 2.0 | 0.19 | 1.28 | 1.28 | 92 | 1013.0 |
| 20260906185308 | 77 | 207 | 0.0 | 2.0 | 0.42 | 1.27 | 1.27 | 92 | 1013.1 |
| 20260906184802 | 77 | 200 | 3.0 | 3.0 | 1.02 | 1.24 | 1.24 | 92 | 1013.3 |
| 20260906184258 | 77 | 206 | 3.0 | 4.0 | 2.34 | 1.19 | 1.19 | 92 | 1013.4 |
| 20260906183753 | 78 | 217 | 4.0 | 6.0 | 3.00 | 1.02 | 1.02 | 91 | 1013.2 |
| 20260906183249 | 78 | 206 | 8.0 | 11.0 | 2.29 | 0.74 | 0.74 | 90 | 1013.4 |
| 20260906182745 | 79 | 182 | 12.0 | 15.0 | 0.73 | 0.46 | 0.46 | 89 | 1013.3 |
| 20260906182240 | 79 | 167 | 6.0 | 8.0 | 0.31 | 0.35 | 0.35 | 88 | 1013.2 |
| 20260906181735 | 80 | 190 | 5.0 | 8.0 | 0.94 | 0.34 | 0.34 | 87 | 1013.1 |
| 20260906181231 | 81 | 243 | 8.0 | 13.0 | 1.63 | 0.29 | 0.29 | 83 | 1013.0 |
| 20260906180731 | 84 | 285 | 7.0 | 9.0 | 1.02 | 0.17 | 0.17 | 78 | 1013.1 |
| 20260906180227 | 84 | 294 | 5.0 | 11.0 | 0.00 | 0.00 | 0.00 | 72 | 1013.1 |
| 20260906175724 | 85 | 289 | 10.0 | 13.0 | 0.00 | 0.00 | 0.00 | 70 | 1013.1 |
| 20260906175220 | 87 | 282 | 9.0 | 14.0 | 0.00 | 0.00 | 0.00 | 68 | 1013.2 |
| 20260906174718 | 91 | 254 | 5.0 | 7.0 | 0.00 | 0.00 | 0.00 | 60 | 1012.9 |
| 20260906174218 | 93 | 219 | 0.0 | 4.0 | 0.00 | 0.00 | 0.00 | 59 | 1012.8 |
| 20260906173713 | 95 | 230 | 2.0 | 3.0 | 0.00 | 0.00 | 0.00 | 55 | 1012.7 |
| 20260906173209 | 96 | 93 | 2.0 | 3.0 | 0.00 | 0.00 | 0.00 | 52 | 1012.9 |
| 20260906172708 | 95 | 59 | 2.0 | 3.0 | 0.00 | 0.00 | 0.00 | 53 | 1012.9 |
| 20260906172204 | 97 | 56 | 3.0 | 4.0 | 0.00 | 0.00 | 0.00 | 49 | 1012.9 |
| 20260906171704 | 95 | 116 | 3.0 | 4.0 | 0.00 | 0.00 | 0.00 | 56 | 1012.9 |
| 20260906171159 | 95 | 180 | 2.0 | 4.0 | 0.00 | 0.00 | 0.00 | 57 | 1012.8 |
| 20260906170655 | 95 | 80 | 1.0 | 3.0 | 0.00 | 0.00 | 0.00 | 58 | 1013.1 |
| 20260906170155 | 95 | 109 | 4.0 | 6.0 | 0.00 | 0.00 | 0.00 | 57 | 1013.1 |
| 20260906165651 | 95 | 116 | 3.0 | 4.0 | 0.00 | 0.00 | 0.00 | 59 | 1013.0 |
| 20260906165146 | 96 | 144 | 1.0 | 2.0 | 0.00 | 0.00 | 0.00 | 57 | 1013.0 |
| 20260906164645 | 93 | 181 | 0.0 | 1.0 | 0.00 | 0.00 | 0.00 | 61 | 1012.7 |
| 20260906164141 | 93 | 30 | 4.0 | 6.0 | 0.00 | 0.00 | 0.00 | 62 | 1013.0 |
| 20260906163636 | 94 | 0 | 2.0 | 2.0 | 0.00 | 0.00 | 0.00 | 60 | 1013.2 |
| 20260906163132 | 91 | 102 | 2.0 | 2.0 | 0.00 | 0.00 | 0.00 | 63 | 1013.2 |
| 20260906162630 | 91 | 0 | 5.0 | 7.0 | 0.00 | 0.00 | 0.00 | 63 | 1013.1 |
| 20260906162129 | 91 | 21 | 6.0 | 7.0 | 0.00 | 0.00 | 0.00 | 62 | 1013.1 |
| 20260906161624 | 91 | 218 | 2.0 | 3.0 | 0.00 | 0.00 | 0.00 | 62 | 1013.3 |
| 20260906161123 | 89 | 126 | 0.0 | 0.0 | 0.00 | 0.00 | 0.00 | 64 | 1013.1 |
| 20260906160622 | 88 | 171 | 0.0 | 0.0 | 0.00 | 0.00 | 0.00 | 68 | 1013.1 |
| 20260906160121 | 88 | 148 | 0.0 | 0.0 | 0.00 | 0.00 | 0.00 | 69 | 1013.1 |
| 20260906155619 | 88 | 345 | 2.0 | 3.0 | 0.00 | 0.00 | 0.00 | 70 | 1013.2 |
| 20260906155115 | 87 | 189 | 1.0 | 1.0 | 0.00 | 0.00 | 0.00 | 70 | 1013.3 |
| 20260906154610 | 87 | 304 | 2.0 | 2.0 | 0.00 | 0.00 | 0.00 | 71 | 1013.1 |
| 20260906154108 | 87 | 292 | 2.0 | 3.0 | 0.00 | 0.00 | 0.00 | 72 | 1013.2 |
| 20260906153608 | 87 | 322 | 2.0 | 3.0 | 0.00 | 0.00 | 0.00 | 73 | 1013.1 |
| 20260906153102 | 86 | 106 | 0.0 | 0.0 | 0.00 | 0.00 | 0.00 | 74 | 1013.0 |
| 20260906152557 | 86 | 231 | 2.0 | 4.0 | 0.00 | 0.00 | 0.00 | 75 | 1013.1 |
| 20260906152057 | 86 | 320 | 2.0 | 3.0 | 0.00 | 0.00 | 0.00 | 75 | 1013.1 |
| 20260906151552 | 86 | 183 | 2.0 | 2.0 | 0.00 | 0.00 | 0.00 | 75 | 1013.0 |
| 20260906151047 | 86 | 155 | 2.0 | 2.0 | 0.00 | 0.00 | 0.00 | 76 | 1013.1 |
| 20260906150543 | 87 | 286 | 3.0 | 3.0 | 0.00 | 0.00 | 0.00 | 75 | 1013.1 |
| 20260906150038 | 87 | 253 | 1.0 | 2.0 | 0.00 | 0.00 | 0.00 | 74 | 1013.1 |
| 20260906145537 | 87 | 5 | 4.0 | 4.0 | 0.00 | 0.00 | 0.00 | 75 | 1013.1 |
| 20260906145032 | 88 | 144 | 0.0 | 2.0 | 0.00 | 0.00 | 0.00 | 74 | 1012.9 |
| 20260906144527 | 87 | 198 | 2.0 | 2.0 | 0.00 | 0.00 | 0.00 | 75 | 1013.0 |
| 20260906144022 | 87 | 198 | 2.0 | 2.0 | 0.00 | 0.00 | 0.00 | 75 | 1013.0 |
| 20260906143517 | 87 | 72 | 0.0 | 1.0 | 0.00 | 0.00 | 0.00 | 74 | 1012.9 |
| 20260906143013 | 87 | 72 | 0.0 | 1.0 | 0.00 | 0.00 | 0.00 | 74 | 1013.1 |
| 20260906142507 | 89 | 315 | 1.0 | 3.0 | 0.00 | 0.00 | 0.00 | 72 | 1013.0 |
| 20260906142002 | 89 | 153 | 0.0 | 0.0 | 0.00 | 0.00 | 0.00 | 73 | 1012.9 |
| 20260906141500 | 87 | 159 | 0.0 | 0.0 | 0.00 | 0.00 | 0.00 | 76 | 1013.0 |
| 20260906140956 | 88 | 159 | 1.0 | 1.0 | 0.00 | 0.00 | 0.00 | 75 | 1013.1 |
| 20260906140451 | 87 | 118 | 1.0 | 1.0 | 0.00 | 0.00 | 0.00 | 76 | 1013.0 |
| 20260906135949 | 87 | 144 | 1.0 | 1.0 | 0.00 | 0.00 | 0.00 | 76 | 1013.0 |
| 20260906135448 | 88 | 165 | 1.0 | 1.0 | 0.00 | 0.00 | 0.00 | 75 | 1013.0 |
| 20260906134943 | 88 | 167 | 0.0 | 1.0 | 0.00 | 0.00 | 0.00 | 74 | 1012.9 |
| 20260906134439 | 88 | 155 | 0.0 | 2.0 | 0.00 | 0.00 | 0.00 | 74 | 1012.9 |
| 20260906133938 | 87 | 118 | 0.0 | 0.0 | 0.00 | 0.00 | 0.00 | 76 | 1012.7 |
| 20260906133434 | 87 | 159 | 1.0 | 1.0 | 0.00 | 0.00 | 0.00 | 77 | 1012.8 |
| 20260906132930 | 86 | 165 | 0.0 | 0.0 | 0.00 | 0.00 | 0.00 | 78 | 1013.0 |
| 20260906132431 | 86 | 154 | 0.0 | 0.0 | 0.00 | 0.00 | 0.00 | 80 | 1012.7 |
| 20260906131926 | 85 | 162 | 0.0 | 0.0 | 0.00 | 0.00 | 0.00 | 81 | 1012.5 |
| 20260906131421 | 85 | 141 | 1.0 | 1.0 | 0.00 | 0.00 | 0.00 | 81 | 1012.5 |
| 20260906130918 | 84 | 175 | 2.0 | 2.0 | 0.00 | 0.00 | 0.00 | 83 | 1012.5 |
| 20260906130417 | 84 | 175 | 2.0 | 2.0 | 0.00 | 0.00 | 0.00 | 83 | 1012.2 |
| 20260906125916 | 83 | 157 | 1.0 | 2.0 | 0.00 | 0.00 | 0.00 | 84 | 1012.4 |
| 20260906125414 | 83 | 155 | 0.0 | 0.0 | 0.00 | 0.00 | 0.00 | 85 | 1012.3 |
| 20260906124908 | 82 | 151 | 0.0 | 0.0 | 0.00 | 0.00 | 0.00 | 85 | 1012.3 |
| 20260906124404 | 82 | 151 | 0.0 | 0.0 | 0.00 | 0.00 | 0.00 | 85 | 1012.3 |
| 20260906123904 | 82 | 138 | 0.0 | 1.0 | 0.00 | 0.00 | 0.00 | 86 | 1012.3 |
| 20260906123358 | 82 | 159 | 0.0 | 0.0 | 0.00 | 0.00 | 0.00 | 86 | 1012.2 |
| 20260906122858 | 82 | 151 | 0.0 | 0.0 | 0.00 | 0.00 | 0.00 | 85 | 1012.1 |
| 20260906122352 | 82 | 154 | 0.0 | 0.0 | 0.00 | 0.00 | 0.00 | 86 | 1012.1 |
| 20260906121849 | 82 | 162 | 0.0 | 0.0 | 0.00 | 0.00 | 0.00 | 86 | 1012.1 |
| 20260906121345 | 82 | 149 | 0.0 | 1.0 | 0.00 | 0.00 | 0.00 | 86 | 1011.8 |
| 20260906120841 | 82 | 161 | 0.0 | 0.0 | 0.00 | 0.00 | 0.00 | 86 | 1011.7 |
| 20260906120337 | 82 | 151 | 0.0 | 0.0 | 0.00 | 0.00 | 0.00 | 86 | 1011.7 |
| 20260906115833 | 82 | 151 | 0.0 | 0.0 | 0.00 | 0.00 | 0.00 | 86 | 1011.5 |
| 20260906115328 | 82 | 163 | 0.0 | 0.0 | 0.00 | 0.00 | 0.00 | 86 | 1011.5 |
| 20260906114827 | 82 | 152 | 0.0 | 0.0 | 0.00 | 0.00 | 0.00 | 86 | 1011.4 |
| 20260906114322 | 82 | 148 | 0.0 | 1.0 | 0.00 | 0.00 | 0.00 | 85 | 1011.6 |
| 20260906113818 | 82 | 149 | 0.0 | 0.0 | 0.00 | 0.00 | 0.00 | 85 | 1011.3 |
| 20260906113317 | 82 | 149 | 0.0 | 0.0 | 0.00 | 0.00 | 0.00 | 85 | 1011.4 |
| 20260906112812 | 82 | 185 | 2.0 | 2.0 | 0.00 | 0.00 | 0.00 | 85 | 1011.4 |
| 20260906112308 | 82 | 185 | 2.0 | 2.0 | 0.00 | 0.00 | 0.00 | 85 | 1011.5 |
| 20260906111808 | 82 | 185 | 2.0 | 2.0 | 0.00 | 0.00 | 0.00 | 85 | 1011.4 |
| 20260906111307 | 82 | 185 | 2.0 | 2.0 | 0.00 | 0.00 | 0.00 | 85 | 1011.4 |
| 20260906110803 | 82 | 185 | 2.0 | 2.0 | 0.00 | 0.00 | 0.00 | 85 | 1011.3 |
| 20260906110258 | 82 | 185 | 2.0 | 2.0 | 0.00 | 0.00 | 0.00 | 85 | 1011.4 |
| 20260906105757 | 82 | 180 | 1.0 | 1.0 | 0.00 | 0.00 | 0.00 | 84 | 1011.4 |
| 20260906105253 | 82 | 180 | 1.0 | 1.0 | 0.00 | 0.00 | 0.00 | 84 | 1011.4 |
| 20260906104749 | 82 | 191 | 2.0 | 2.0 | 0.00 | 0.00 | 0.00 | 84 | 1011.4 |
| 20260906104247 | 82 | 172 | 1.0 | 2.0 | 0.00 | 0.00 | 0.00 | 85 | 1011.2 |
| 20260906103745 | 82 | 172 | 1.0 | 2.0 | 0.00 | 0.00 | 0.00 | 85 | 1011.1 |
| 20260906103239 | 82 | 145 | 0.0 | 0.0 | 0.00 | 0.00 | 0.00 | 85 | 1011.2 |
| 20260906102735 | 82 | 178 | 1.0 | 1.0 | 0.00 | 0.00 | 0.00 | 85 | 1010.9 |
| 20260906102234 | 82 | 187 | 0.0 | 0.0 | 0.00 | 0.00 | 0.00 | 85 | 1011.2 |
| 20260906101729 | 82 | 187 | 0.0 | 0.0 | 0.00 | 0.00 | 0.00 | 85 | 1010.9 |
| 20260906101224 | 82 | 148 | 0.0 | 0.0 | 0.00 | 0.00 | 0.00 | 84 | 1011.1 |
| 20260906100720 | 82 | 154 | 0.0 | 0.0 | 0.00 | 0.00 | 0.00 | 84 | 1011.0 |
| 20260906100220 | 82 | 154 | 0.0 | 0.0 | 0.00 | 0.00 | 0.00 | 84 | 1010.9 |
| 20260906095720 | 82 | 153 | 0.0 | 0.0 | 0.00 | 0.00 | 0.00 | 84 | 1011.0 |
| 20260906095216 | 82 | 152 | 0.0 | 0.0 | 0.00 | 0.00 | 0.00 | 84 | 1011.0 |
| 20260906094714 | 82 | 150 | 0.0 | 0.0 | 0.00 | 0.00 | 0.00 | 84 | 1011.0 |
| 20260906094210 | 82 | 157 | 0.0 | 0.0 | 0.00 | 0.00 | 0.00 | 84 | 1010.9 |
| 20260906093706 | 83 | 147 | 0.0 | 0.0 | 0.00 | 0.00 | 0.00 | 84 | 1011.0 |
| 20260906093201 | 83 | 149 | 0.0 | 0.0 | 0.00 | 0.00 | 0.00 | 84 | 1011.0 |
| 20260906092657 | 83 | 160 | 2.0 | 2.0 | 0.00 | 0.00 | 0.00 | 84 | 1010.9 |
| 20260906092156 | 82 | 192 | 1.0 | 1.0 | 0.00 | 0.00 | 0.00 | 84 | 1010.8 |
| 20260906091653 | 82 | 175 | 2.0 | 2.0 | 0.00 | 0.00 | 0.00 | 84 | 1010.8 |
| 20260906091149 | 83 | 177 | 0.0 | 0.0 | 0.00 | 0.00 | 0.00 | 83 | 1010.7 |
| 20260906090645 | 83 | 177 | 0.0 | 0.0 | 0.00 | 0.00 | 0.00 | 83 | 1010.7 |
| 20260906090144 | 83 | 190 | 0.0 | 0.0 | 0.00 | 0.00 | 0.00 | 83 | 1010.6 |
| 20260906085642 | 83 | 190 | 0.0 | 0.0 | 0.00 | 0.00 | 0.00 | 83 | 1010.8 |
| 20260906085137 | 83 | 190 | 0.0 | 0.0 | 0.00 | 0.00 | 0.00 | 83 | 1010.6 |
| 20260906084631 | 83 | 184 | 0.0 | 1.0 | 0.00 | 0.00 | 0.00 | 83 | 1010.7 |
| 20260906084130 | 83 | 184 | 0.0 | 1.0 | 0.00 | 0.00 | 0.00 | 83 | 1010.7 |
| 20260906083627 | 83 | 184 | 0.0 | 1.0 | 0.00 | 0.00 | 0.00 | 83 | 1010.7 |
| 20260906083126 | 83 | 184 | 0.0 | 1.0 | 0.00 | 0.00 | 0.00 | 83 | 1010.7 |
| 20260906082622 | 83 | 184 | 0.0 | 1.0 | 0.00 | 0.00 | 0.00 | 83 | 1010.8 |
| 20260906082117 | 83 | 184 | 0.0 | 1.0 | 0.00 | 0.00 | 0.00 | 83 | 1010.8 |
| 20260906081613 | 83 | 176 | 0.0 | 0.0 | 0.00 | 0.00 | 0.00 | 83 | 1010.7 |
| 20260906081108 | 83 | 176 | 0.0 | 0.0 | 0.00 | 0.00 | 0.00 | 83 | 1010.7 |
| 20260906080606 | 83 | 189 | 2.0 | 2.0 | 0.00 | 0.00 | 0.00 | 82 | 1010.9 |
| 20260906075600 | 83 | 189 | 2.0 | 2.0 | 0.00 | 0.00 | 0.00 | 82 | 1011.0 |
| 20260906075055 | 83 | 189 | 2.0 | 2.0 | 0.00 | 0.00 | 0.00 | 82 | 1010.8 |
| 20260906074551 | 83 | 189 | 2.0 | 2.0 | 0.00 | 0.00 | 0.00 | 82 | 1011.0 |
| 20260906074049 | 83 | 189 | 2.0 | 2.0 | 0.00 | 0.00 | 0.00 | 82 | 1011.0 |
| 20260906073544 | 83 | 216 | 2.0 | 2.0 | 0.00 | 0.00 | 0.00 | 83 | 1011.0 |
| 20260906073040 | 83 | 176 | 1.0 | 2.0 | 0.00 | 0.00 | 0.00 | 82 | 1011.3 |
| 20260906072534 | 83 | 178 | 1.0 | 2.0 | 0.00 | 0.00 | 0.00 | 82 | 1011.1 |
| 20260906072031 | 83 | 178 | 1.0 | 2.0 | 0.00 | 0.00 | 0.00 | 82 | 1011.2 |
| 20260906071527 | 83 | 183 | 0.0 | 1.0 | 0.00 | 0.00 | 0.00 | 82 | 1011.1 |
| 20260906071022 | 83 | 183 | 0.0 | 1.0 | 0.00 | 0.00 | 0.00 | 82 | 1011.0 |
| 20260906070518 | 83 | 195 | 3.0 | 3.0 | 0.00 | 0.00 | 0.00 | 82 | 1011.1 |
| 20260906070014 | 83 | 224 | 3.0 | 3.0 | 0.00 | 0.00 | 0.00 | 82 | 1011.1 |
| 20260906065513 | 83 | 194 | 1.0 | 1.0 | 0.00 | 0.00 | 0.00 | 81 | 1011.2 |
| 20260906065009 | 83 | 198 | 1.0 | 3.0 | 0.00 | 0.00 | 0.00 | 81 | 1011.3 |
| 20260906064504 | 83 | 202 | 3.0 | 6.0 | 0.00 | 0.00 | 0.00 | 81 | 1011.3 |
| 20260906063959 | 83 | 185 | 2.0 | 3.0 | 0.00 | 0.00 | 0.00 | 81 | 1011.4 |
| 20260906063455 | 83 | 188 | 2.0 | 3.0 | 0.00 | 0.00 | 0.00 | 81 | 1011.2 |
| 20260906062955 | 83 | 203 | 3.0 | 3.0 | 0.00 | 0.00 | 0.00 | 80 | 1011.4 |
| 20260906062450 | 83 | 168 | 4.0 | 4.0 | 0.00 | 0.00 | 0.00 | 80 | 1011.2 |
| 20260906061945 | 83 | 168 | 4.0 | 4.0 | 0.00 | 0.00 | 0.00 | 80 | 1011.3 |
| 20260906061441 | 83 | 141 | 3.0 | 3.0 | 0.00 | 0.00 | 0.00 | 80 | 1011.1 |
| 20260906060935 | 83 | 204 | 3.0 | 3.0 | 0.00 | 0.00 | 0.00 | 80 | 1011.2 |
| 20260906060432 | 83 | 211 | 4.0 | 4.0 | 0.00 | 0.00 | 0.00 | 80 | 1011.1 |
| 20260906055929 | 84 | 190 | 2.0 | 2.0 | 0.00 | 0.00 | 0.00 | 79 | 1011.2 |
| 20260906055424 | 84 | 190 | 2.0 | 2.0 | 0.00 | 0.00 | 0.00 | 79 | 1011.3 |
| 20260906054919 | 84 | 193 | 2.0 | 3.0 | 0.00 | 0.00 | 0.00 | 79 | 1011.4 |
| 20260906054414 | 84 | 178 | 1.0 | 1.0 | 0.00 | 0.00 | 0.00 | 79 | 1011.2 |
| 20260906053910 | 84 | 192 | 3.0 | 3.0 | 0.00 | 0.00 | 0.00 | 79 | 1011.2 |
| 20260906053406 | 84 | 213 | 3.0 | 3.0 | 0.00 | 0.00 | 0.00 | 79 | 1011.2 |
| 20260906052901 | 84 | 213 | 3.0 | 3.0 | 0.00 | 0.00 | 0.00 | 79 | 1011.2 |
| 20260906052358 | 84 | 181 | 3.0 | 4.0 | 0.00 | 0.00 | 0.00 | 79 | 1011.3 |
| 20260906051854 | 84 | 183 | 2.0 | 2.0 | 0.00 | 0.00 | 0.00 | 79 | 1011.3 |
| 20260906051354 | 84 | 181 | 3.0 | 4.0 | 0.00 | 0.00 | 0.00 | 80 | 1011.3 |
| 20260906050850 | 84 | 209 | 3.0 | 6.0 | 0.00 | 0.00 | 0.00 | 80 | 1011.4 |
| 20260906050344 | 84 | 210 | 6.0 | 8.0 | 0.00 | 0.00 | 0.00 | 80 | 1011.2 |
| 20260906045843 | 84 | 200 | 3.0 | 3.0 | 0.00 | 0.00 | 0.00 | 81 | 1011.3 |
| 20260906045338 | 84 | 194 | 4.0 | 4.0 | 0.00 | 0.00 | 0.00 | 81 | 1011.5 |
| 20260906044834 | 84 | 194 | 4.0 | 4.0 | 0.00 | 0.00 | 0.00 | 81 | 1011.4 |
| 20260906044328 | 84 | 196 | 6.0 | 7.0 | 0.00 | 0.00 | 0.00 | 80 | 1011.4 |
| 20260906043826 | 84 | 173 | 3.0 | 3.0 | 0.00 | 0.00 | 0.00 | 80 | 1011.4 |
| 20260906043320 | 84 | 172 | 4.0 | 4.0 | 0.00 | 0.00 | 0.00 | 80 | 1011.4 |
| 20260906042820 | 84 | 190 | 4.0 | 4.0 | 0.00 | 0.00 | 0.00 | 79 | 1011.4 |
| 20260906042319 | 84 | 169 | 2.0 | 3.0 | 0.00 | 0.00 | 0.00 | 79 | 1011.3 |
| 20260906041815 | 84 | 219 | 4.0 | 6.0 | 0.00 | 0.00 | 0.00 | 79 | 1011.3 |
| 20260906041310 | 84 | 159 | 2.0 | 4.0 | 0.00 | 0.00 | 0.00 | 79 | 1011.4 |
| 20260906040805 | 84 | 159 | 2.0 | 4.0 | 0.00 | 0.00 | 0.00 | 79 | 1011.6 |
| 20260906040300 | 84 | 162 | 3.0 | 3.0 | 0.00 | 0.00 | 0.00 | 78 | 1011.5 |
| 20260906035755 | 84 | 161 | 3.0 | 6.0 | 0.00 | 0.00 | 0.00 | 78 | 1011.3 |
| 20260906035251 | 85 | 155 | 4.0 | 6.0 | 0.00 | 0.00 | 0.00 | 78 | 1011.5 |
| 20260906034752 | 85 | 150 | 3.0 | 4.0 | 0.00 | 0.00 | 0.00 | 78 | 1011.4 |
| 20260906034252 | 85 | 150 | 4.0 | 6.0 | 0.00 | 0.00 | 0.00 | 78 | 1011.7 |
| 20260906033748 | 85 | 135 | 3.0 | 3.0 | 0.00 | 0.00 | 0.00 | 78 | 1011.5 |
| 20260906033247 | 85 | 149 | 2.0 | 2.0 | 0.00 | 0.00 | 0.00 | 78 | 1011.5 |
| 20260906032744 | 85 | 162 | 4.0 | 4.0 | 0.00 | 0.00 | 0.00 | 78 | 1011.6 |
| 20260906032244 | 85 | 162 | 4.0 | 4.0 | 0.00 | 0.00 | 0.00 | 78 | 1011.4 |
| 20260906031739 | 85 | 169 | 3.0 | 4.0 | 0.00 | 0.00 | 0.00 | 78 | 1011.5 |
| 20260906031235 | 85 | 136 | 3.0 | 6.0 | 0.00 | 0.00 | 0.00 | 78 | 1011.6 |
| 20260906030734 | 85 | 150 | 5.0 | 6.0 | 0.00 | 0.00 | 0.00 | 77 | 1011.3 |
| 20260906030230 | 85 | 143 | 3.0 | 4.0 | 0.00 | 0.00 | 0.00 | 77 | 1011.4 |
| 20260906025729 | 85 | 128 | 2.0 | 2.0 | 0.00 | 0.00 | 0.00 | 77 | 1011.1 |
| 20260906025229 | 85 | 172 | 4.0 | 4.0 | 0.00 | 0.00 | 0.00 | 77 | 1011.1 |
| 20260906024728 | 85 | 136 | 5.0 | 6.0 | 0.00 | 0.00 | 0.00 | 76 | 1011.1 |
| 20260906024227 | 85 | 121 | 1.0 | 1.0 | 0.00 | 0.00 | 0.00 | 76 | 1011.0 |
| 20260906023723 | 86 | 158 | 4.0 | 6.0 | 0.00 | 0.00 | 0.00 | 76 | 1011.0 |
| 20260906023218 | 86 | 119 | 4.0 | 6.0 | 0.00 | 0.00 | 0.00 | 75 | 1010.8 |
| 20260906022714 | 86 | 182 | 5.0 | 6.0 | 0.00 | 0.00 | 0.00 | 75 | 1010.8 |
| 20260906022209 | 86 | 144 | 1.0 | 2.0 | 0.00 | 0.00 | 0.00 | 75 | 1010.8 |
| 20260906021705 | 86 | 158 | 5.0 | 8.0 | 0.00 | 0.00 | 0.00 | 75 | 1010.7 |
| 20260906021204 | 86 | 137 | 2.0 | 3.0 | 0.00 | 0.00 | 0.00 | 75 | 1010.5 |
| 20260906020659 | 86 | 118 | 2.0 | 3.0 | 0.00 | 0.00 | 0.00 | 75 | 1010.5 |
| 20260906020154 | 86 | 150 | 3.0 | 3.0 | 0.00 | 0.00 | 0.00 | 75 | 1010.5 |
| 20260906015654 | 86 | 136 | 6.0 | 8.0 | 0.00 | 0.00 | 0.00 | 75 | 1010.5 |
| 20260906015153 | 86 | 146 | 4.0 | 6.0 | 0.00 | 0.00 | 0.00 | 74 | 1010.4 |
| 20260906014652 | 86 | 157 | 5.0 | 9.0 | 0.00 | 0.00 | 0.00 | 74 | 1010.6 |
| 20260906014148 | 86 | 144 | 3.0 | 3.0 | 0.00 | 0.00 | 0.00 | 73 | 1010.4 |
| 20260906013644 | 86 | 166 | 5.0 | 6.0 | 0.00 | 0.00 | 0.00 | 73 | 1010.4 |
| 20260906013139 | 86 | 138 | 6.0 | 7.0 | 0.00 | 0.00 | 0.00 | 73 | 1010.4 |
| 20260906012640 | 87 | 151 | 6.0 | 8.0 | 0.00 | 0.00 | 0.00 | 72 | 1010.4 |
| 20260906012139 | 87 | 107 | 3.0 | 4.0 | 0.00 | 0.00 | 0.00 | 72 | 1010.2 |
| 20260906011635 | 87 | 151 | 3.0 | 3.0 | 0.00 | 0.00 | 0.00 | 72 | 1010.2 |
| 20260906011130 | 87 | 152 | 5.0 | 6.0 | 0.00 | 0.00 | 0.00 | 71 | 1010.2 |
| 20260906010626 | 87 | 109 | 3.0 | 4.0 | 0.00 | 0.00 | 0.00 | 71 | 1010.1 |
| 20260906010122 | 87 | 153 | 3.0 | 3.0 | 0.00 | 0.00 | 0.00 | 71 | 1010.6 |
| 20260906005621 | 88 | 130 | 4.0 | 6.0 | 0.00 | 0.00 | 0.00 | 71 | 1010.1 |
| 20260906005120 | 88 | 139 | 3.0 | 3.0 | 0.00 | 0.00 | 0.00 | 71 | 1010.3 |
| 20260906004620 | 88 | 172 | 1.0 | 6.0 | 0.00 | 0.00 | 0.00 | 70 | 1010.2 |
| 20260906004114 | 88 | 149 | 2.0 | 3.0 | 0.00 | 0.00 | 0.00 | 70 | 1010.2 |
| 20260906003610 | 88 | 120 | 4.0 | 6.0 | 0.00 | 0.00 | 0.00 | 69 | 1010.0 |
| 20260906003107 | 89 | 152 | 4.0 | 6.0 | 0.00 | 0.00 | 0.00 | 68 | 1010.0 |
| 20260906002606 | 89 | 103 | 4.0 | 4.0 | 0.00 | 0.00 | 0.00 | 66 | 1010.2 |
| 20260906002102 | 90 | 104 | 2.0 | 3.0 | 0.00 | 0.00 | 0.00 | 62 | 1010.2 |
| 20260906001557 | 89 | 128 | 2.0 | 3.0 | 0.00 | 0.00 | 0.00 | 61 | 1010.3 |
| 20260906001056 | 89 | 121 | 2.0 | 3.0 | 0.00 | 0.00 | 0.00 | 61 | 1010.2 |
| 20260906000553 | 89 | 155 | 3.0 | 6.0 | 0.00 | 0.00 | 0.00 | 63 | 1010.4 |
| 20260906000048 | 89 | 171 | 1.0 | 4.0 | 0.00 | 0.00 | 0.00 | 63 | 1010.1 |
| 20260905235547 | 90 | 114 | 2.0 | 4.0 | 0.00 | 0.00 | 0.00 | 63 | 1010.4 |
| 20260905235042 | 90 | 122 | 2.0 | 3.0 | 0.00 | 0.00 | 0.00 | 63 | 1010.3 |
| 20260905234537 | 90 | 281 | 2.0 | 3.0 | 0.00 | 0.00 | 0.00 | 63 | 1010.6 |
| 20260905234032 | 90 | 110 | 5.0 | 7.0 | 0.00 | 0.00 | 0.00 | 62 | 1010.6 |
| 20260905233532 | 90 | 160 | 2.0 | 3.0 | 0.00 | 0.00 | 0.00 | 62 | 1010.7 |
| 20260905233032 | 90 | 163 | 2.0 | 8.0 | 0.00 | 0.00 | 0.00 | 63 | 1010.6 |
| 20260905232528 | 90 | 134 | 4.0 | 6.0 | 0.00 | 0.00 | 0.00 | 63 | 1010.4 |
| 20260905232023 | 90 | 125 | 4.0 | 6.0 | 0.00 | 0.00 | 0.00 | 63 | 1010.6 |
| 20260905231518 | 90 | 130 | 1.0 | 3.0 | 0.00 | 0.00 | 0.00 | 63 | 1010.5 |
| 20260905231015 | 90 | 167 | 1.0 | 1.0 | 0.00 | 0.00 | 0.00 | 64 | 1010.5 |
| 20260905230514 | 90 | 102 | 2.0 | 3.0 | 0.00 | 0.00 | 0.00 | 64 | 1010.6 |
| 20260905230012 | 89 | 149 | 1.0 | 2.0 | 0.00 | 0.00 | 0.00 | 66 | 1010.3 |
| 20260905225507 | 88 | 198 | 2.0 | 3.0 | 0.00 | 0.00 | 0.00 | 69 | 1010.3 |
| 20260905225002 | 88 | 194 | 2.0 | 2.0 | 0.00 | 0.00 | 0.00 | 71 | 1010.2 |
| 20260905224457 | 87 | 188 | 1.0 | 2.0 | 0.00 | 0.00 | 0.00 | 73 | 1010.3 |
| 20260905223956 | 87 | 217 | 2.0 | 3.0 | 0.00 | 0.00 | 0.00 | 74 | 1010.2 |
| 20260905223454 | 86 | 196 | 1.0 | 3.0 | 0.00 | 0.00 | 0.00 | 75 | 1010.2 |
| 20260905222950 | 86 | 216 | 4.0 | 4.0 | 0.00 | 0.00 | 0.00 | 75 | 1010.2 |
| 20260905222449 | 86 | 182 | 1.0 | 2.0 | 0.00 | 0.00 | 0.00 | 75 | 1010.3 |
| 20260905221945 | 86 | 226 | 1.0 | 2.0 | 0.00 | 0.00 | 0.00 | 75 | 1010.3 |
| 20260905221441 | 86 | 253 | 2.0 | 4.0 | 0.00 | 0.00 | 0.00 | 75 | 1010.3 |
| 20260905220937 | 86 | 337 | 2.0 | 3.0 | 0.00 | 0.00 | 0.00 | 75 | 1010.2 |
| 20260905220433 | 88 | 293 | 3.0 | 9.0 | 0.00 | 0.00 | 0.00 | 71 | 1010.3 |
| 20260905215932 | 89 | 210 | 4.0 | 7.0 | 0.00 | 0.00 | 0.00 | 67 | 1010.1 |
| 20260905215428 | 89 | 170 | 2.0 | 3.0 | 0.00 | 0.00 | 0.00 | 65 | 1010.1 |
| 20260905214924 | 89 | 215 | 2.0 | 3.0 | 0.00 | 0.00 | 0.00 | 65 | 1010.4 |
| 20260905214420 | 89 | 291 | 6.0 | 10.0 | 0.00 | 0.00 | 0.00 | 65 | 1010.2 |
| 20260905213919 | 89 | 290 | 9.0 | 10.0 | 0.00 | 0.00 | 0.00 | 65 | 1010.3 |
| 20260905213416 | 89 | 252 | 4.0 | 9.0 | 0.00 | 0.00 | 0.00 | 65 | 1010.4 |
| 20260905212911 | 91 | 263 | 6.0 | 9.0 | 0.00 | 0.00 | 0.00 | 64 | 1010.3 |
| 20260905212406 | 92 | 207 | 5.0 | 7.0 | 0.00 | 0.00 | 0.00 | 61 | 1010.3 |
| 20260905211905 | 93 | 166 | 1.0 | 4.0 | 0.00 | 0.00 | 0.00 | 58 | 1010.5 |
| 20260905211401 | 95 | 186 | 3.0 | 6.0 | 0.00 | 0.00 | 0.00 | 54 | 1010.5 |
| 20260905210857 | 95 | 148 | 0.0 | 0.0 | 0.00 | 0.00 | 0.00 | 53 | 1010.5 |
| 20260905210357 | 95 | 104 | 1.0 | 8.0 | 0.00 | 0.00 | 0.00 | 53 | 1010.6 |
| 20260905205856 | 95 | 110 | 2.0 | 6.0 | 0.00 | 0.00 | 0.00 | 53 | 1010.3 |
| 20260905205351 | 95 | 165 | 3.0 | 6.0 | 0.00 | 0.00 | 0.00 | 53 | 1010.3 |
| 20260905204850 | 96 | 137 | 3.0 | 10.0 | 0.00 | 0.00 | 0.00 | 52 | 1010.5 |
| 20260905204346 | 97 | 117 | 2.0 | 6.0 | 0.00 | 0.00 | 0.00 | 51 | 1010.2 |
| 20260905203844 | 96 | 96 | 4.0 | 6.0 | 0.00 | 0.00 | 0.00 | 52 | 1010.6 |